Location: Dana
(41.8364°N, 106.7042°W)
Time: 02:45:18
(UTC+00:00)

Altair - Pass Details

Date: 15 May 2026
Orbit: 1501 x 1682 km, 47.2° (Epoch: 6 June)

Event Time Altitude Azimuth Distance (km) Brightness Sun altitude
Rises 10:40:03 0° 207° (SSW) 4,779 - -11.3°
Exits shadow 10:42:21 - 203° (SSW) 4,099 9.2 -11.0°
Reaches altitude 10° 10:43:20 10° 200° (SSW) 3,822 9.1 -10.8°
Maximum altitude 10:52:14 41° 135° (SE) 2,238 8.5 -9.5°
Drops below altitude 10° 11:01:23 10° 70° (ENE) 3,937 11.2 -8.1°
Sets 11:04:48 0° 63° (ENE) 4,936 12.5 -7.6°
